Location: Chillicothe
(39.7950°N, 93.5520°W)
Time: 09:49:51
(UTC-06:00)

Altair - Pass Details

Date: 25 October 2019
Orbit: 1502 x 1682 km, 47.2° (Epoch: 17 November)

Event Time Altitude Azimuth Distance (km) Brightness Sun altitude
Rises 19:32:09 0° 288° (WNW) 4,888 11.5 -14.3°
Reaches altitude 10° 19:37:09 10° 268° (W) 3,920 11.0 -15.2°
Maximum altitude 19:42:07 15° 238° (WSW) 3,545 10.3 -16.2°
Drops below altitude 10° 19:47:06 10° 207° (SSW) 3,934 10.0 -17.2°
Sets 19:52:13 0° 186° (S) 4,915 10.2 -18.1°
